Location: Cubitt Town
(51.4833°N, 0.0000°E)
Time: 03:37:57
(UTC+00:00)

Cosmos 2026 Rocket - Pass Details

Date: 15 May 2026
Orbit: 939 x 999 km, 82.9° (Epoch: 8 June)

Event Time Altitude Azimuth Distance (km) Brightness Sun altitude
Rises 22:28:46 0° 348° (NNW) 3,731 8.7 -16.9°
Reaches altitude 10° 22:31:18 10° 346° (NNW) 2,780 7.7 -17.1°
Maximum altitude 22:37:38 67° 266° (W) 1,079 4.2 -17.4°
Enters shadow 22:41:40 23° 189° (S) 1,959 5.1 -17.6°
